Home   Weather   Crestview   Past weeks
Flag for USA

Past Weather in Crestview, Florida, USA — Yesterday and Last 2 Weeks

Now
70 °F

Passing clouds.


Feels Like: 64 °F
Forecast: 75 / 52 °F
Wind: No wind

Location: Sikes Airport

Current Time: Oct 22, 2019 at 6:19:26 am

Latest Report: Oct 22, 2019 at 4:53 am


Visibility: 10 mi

Pressure: 29.92 "Hg

Humidity: 97%

Dew Point: 69 °F

Location of CrestviewLocation

Past Weather in Crestview — Graph

°F

Crestview Temperature Yesterday

Maximum temperature yesterday: 84 °F (at 1:53 pm)
Minimum temperature yesterday: 58 °F (at 3:43 am)
Average temperature yesterday: 68 °F

High & Low Weather Summary for the Past Weeks

 TemperatureHumidityPressure
High92 °F (Oct 9, 1:53 pm)97% (Oct 12, 5:53 am)30.11 "Hg (Oct 12, 5:53 am)
Low51 °F (Oct 17, 6:53 am)33% (Oct 11, 3:53 pm)29.62 "Hg (Oct 19, 1:53 pm)
Average71 °F80%29.94 "Hg
* Reported Oct 7 4:53 am — Oct 22 4:53 am, Crestview. Weather by CustomWeather, © 2019

Note: Actual official high and low records may vary slightly from our data, if they occured in-between our weather recording intervals... More about our weather records

Advertising

Crestview Weather History for the Previous 24 Hours

Scroll right to see more
 ConditionsComfort  
Time TempWeatherWind HumidityBarometerVisibility
4:53 am
Tue, Oct 22
70 °FPassing clouds.No wind97%29.92 "Hg10 mi
4:06 am70 °FFog.No wind97%29.92 "Hg4 mi
4:01 am70 °FFog.No wind93%29.91 "Hg1 mi
3:21 am70 °FFog.No wind97%29.92 "Hg1 mi
2:59 am70 °FFog.No wind93%29.92 "Hg1 mi
2:25 am71 °FPartly cloudy.3 mph96%29.93 "Hg10 mi
1:53 am71 °FLight rain. Mostly cloudy.No wind96%29.93 "Hg10 mi
1:32 am71 °FLight rain. Mostly cloudy.3 mph96%29.95 "Hg10 mi
12:53 am71 °FPassing clouds.5 mph93%29.93 "Hg10 mi
11:53 pm
Mon, Oct 21
71 °FClear.No wind93%29.92 "Hg10 mi
9:06 pm71 °FHeavy rain. Fog.5 mph93%29.97 "Hg1 mi
8:53 pm75 °FHeavy rain. Fog.10 mph94%29.95 "Hg1 mi
8:42 pm75 °FHeavy rain. Fog.5 mph94%29.95 "Hg2 mi
8:06 pm75 °FRain. Fog.5 mph90%29.91 "Hg6 mi
7:53 pm76 °FLight rain. Partly cloudy.3 mph88%29.91 "Hg10 mi
6:53 pm75 °FClear.No wind88%29.89 "Hg10 mi
5:53 pm77 °FClear.3 mph85%29.88 "Hg10 mi
4:53 pm80 °FPassing clouds.5 mph74%29.88 "Hg10 mi
3:53 pm82 °FSunny.9 mph72%29.89 "Hg10 mi
3:23 pm82 °FScattered clouds.8 mph67%29.90 "Hg10 mi
3:07 pm83 °FPartly sunny.12 mph68%29.90 "Hg10 mi
1:53 pm84 °FBroken clouds.8 mph65%29.91 "Hg10 mi
12:53 pm82 °FBroken clouds.7 mph70%29.92 "Hg10 mi
12:14 pm81 °FBroken clouds.8 mph72%29.94 "Hg10 mi
11:53 am82 °FBroken clouds.8 mph70%29.93 "Hg10 mi
10:53 am80 °FPassing clouds.6 mph74%29.95 "Hg10 mi
9:53 am71 °FScattered clouds.6 mph90%29.95 "Hg10 mi
9:44 am71 °FScattered clouds.3 mph90%29.96 "Hg10 mi
9:37 am71 °FBroken clouds.3 mph90%29.96 "Hg10 mi
8:53 am67 °FPartly sunny.3 mph97%29.96 "Hg8 mi
8:16 am65 °FFog.3 mph97%29.94 "Hg5 mi
8:06 am64 °FFog.3 mph97%29.94 "Hg5 mi
7:10 am61 °FFog.No wind97%29.92 "Hg3 mi
6:53 am59 °FFog.3 mph96%29.91 "Hg4 mi
6:30 am60 °FFog.No wind93%29.92 "Hg3 mi
Weather by CustomWeather, © 2019

See weather overview